timestamp,gas_concentrations,,corrected_fluxes_and_quality_flags,,,,,,,,,,storage_terms,,,turbulence,,,footprint,,
ISOdate,CO2_1_1_1,H2O_1_1_1,Tau_1_1_1,QcTau_1_1_1,H_1_1_1,QcH_1_1_1,LE_1_1_1, QcLE_1_1_1,Fc_1_1_1, QcFc_1_1_1,E_1_1_1, QcE_1_1_1,Sa_1_1_1,Sw_1_1_1,Sc_1_1_1,ustar_1_1_1,MO_length_1_1_1,ZL_1_1_1,Fetchmax_1_1_1,Fetch70_1_1_1,Fetch90_1_1_1
yyyymmddHHMM,[µmol+1mol_a-1],[mmol+1mol_a-1],[kg+1m-1s-2],[#],[W+1m-2],[#],[W+1m-2],[#],[µmol+1s-1m-2],[#],[mmol+1s-1m-2],[#],[W+1m-2],[W+1m-2],[µmol+1s-1m-2],[m+1s-1],[m],[#],[m],[m],[m]
201810180030,414.34476276518211,3.1034801108672498,0.11778086709416342,0,-29.337119366641051,0,3.6549621973278485,0,0.39332436321556408,0,8.10569478829937240E-002,0,-9999.,-9999.,-9999.,0.31002272860125540,85.848596997010318,0.25160574261629720,110.14933966608588,201.38812323966590,301.71610633384711
201810180100,414.60414225711872,3.1592776557415863,0.13643440606129939,0,-25.442998610867981,0,5.5466996253467844,0,0.64103776441399307,0,0.12299452882549672,0,-3.2814235348122893,2.0742241899373211,0.21380969064429217,0.33353361476411120,123.29044364311285,0.17519606030882023,114.55726244162611,209.44721190821778,313.79008971756917
201810180130,414.79846205898758,3.2064270044913665,9.70606959933508762E-002,0,-20.928500205508360,0,10.480039933792348,0,0.99904120664080875,0,0.23237617566392066,0,-1.3130381620619742,1.7534400284064182,0.16023631163558238,0.28127243262223856,89.902451654982428,0.24026041117203417,110.02423368299375,201.15938960206665,301.37342166399748
201810180200,414.97416016907954,3.2096735829530587,0.12110463602892718,1,-28.334665047138497,0,7.4000890593226316,0,0.75166619953330605,0,0.16406325591062029,0,-3.1722784960721047,0.12081991939162834,0.14496197860606069,0.31409755172052317,92.475416421185784,0.23357559052906865,116.00574355412176,212.09549735121638,317.75770389197231
201810180230,414.83332259263716,3.0908246229038410,9.00885385236797481E-002,0,-25.157412833848412,0,9.8682293666554113,0,0.83767844898972554,0,0.21878571400787580,0,0.31247334892775208,-4.4236731911177483,-0.11622135045063296,0.27087504044625366,66.812206094737874,0.32329421916366291,106.16034583361851,194.09497028958475,290.78963422815599
201810180300,415.21398521984645,3.1033536313727654,7.13732788852849270E-002,0,-20.000696037321937,0,4.8737920652939239,0,0.35354437199823963,0,0.10804990264638585,0,-1.3063332462946631,0.46649193174269937,0.31421365745897567,0.24107065687232895,59.241386409381988,0.36460996794935296,111.30652858834220,203.50383365602789,304.88582607047243
201810180330,415.14562907796795,3.0572182143813631,9.07046608451738401E-002,0,-27.679450306104634,0,10.356013963068984,0,0.70505870455741326,0,0.22958582810961289,0,-0.28857094512965381,-1.7181211384610460,-5.64351030476141352E-002,0.27173404578725857,61.313645817236605,0.35228699438922895,120.11468299159105,219.60794912192969,329.01272559244762
201810180400,415.52554907819507,3.1098237703386418,6.15980517789093268E-002,1,-23.766118388282109,0,2.4294474428539097,1,0.12166575336992391,0,5.38590373390850849E-002,1,-8.01590474376284445E-002,1.9590754660974468,0.31366263491073887,0.22393276416015523,39.964655827424615,0.54047756831118787,114.09936278937596,208.61002530430076,312.53583162952845
201810180430,415.92873494945667,3.1980480065586572,3.24948290342229398E-002,0,-11.951186524734808,0,2.5204770965761205,1,0.32908248815952701,0,5.58699381003337769E-002,1,-3.2566549612968401,3.2881449180879980,0.33309167795396855,0.16259403529845806,30.425705422008775,0.70992602144814687,408.98646318956150,4260.0000000000000,-9999.
201810180500,416.12222681889341,3.1691322948900189,7.41316868583710015E-002,0,-25.804267056932932,0,11.142625087961683,0,0.81930166068337873,0,0.24700443073058601,0,1.2753894021052765,-1.0776476796527896,0.15985376097545750,0.24558182098133238,48.561817967625920,0.44479389166195948,117.67588385480300,215.14904648479040,322.33247692357077
201810180530,416.37300689288134,3.1976241004887735,6.94798113041148885E-002,0,-20.809903474725289,0,1.8943662608353902,0,0.27873497659072677,0,4.19856490202241903E-002,0,-4.7048076957848801,1.0630186619018134,0.20737235672937526,0.23764412483500583,54.572128240722840,0.39580644362485462,112.04294683579197,204.85024108091972,306.90298974051615
201810180600,416.80708653888473,3.2426607741733142,5.80980367226422989E-002,0,-22.647555888094587,0,5.8843345837826133,1,0.72918568745297829,0,0.13039743842180870,1,-3.8237729834623755,1.6814776416088464,0.35914176568880163,0.21725154344689646,38.310551131309552,0.56381334546626394,95.914021655781866,175.36142179501243,262.72336488380080
201810180630,416.84281206665503,3.1453520786936560,6.95856967895937678E-002,0,-31.147194837639880,0,2.7789882451718353,0,0.61505464819473277,0,6.15731762860695572E-002,0,-3.9225425280030786,-3.6359137644230763,2.95764077402412562E-002,0.23768347731140024,36.477802209004139,0.59214093755539587,105.07154526760299,192.10429559977845,287.80724079440364
201810180700,417.55069343073637,3.1343121568670669,6.51167492587132607E-002,0,-29.777388105507651,0,8.1813768317743261,0,1.3720657321030756,0,0.18120277327431064,0,-9.7795128665336151,-0.41322859758473407,0.58684484483546329,0.22976635201599208,34.465345449763738,0.62671648051472151,114.17514321253427,208.74857608676049,312.74340594891123
201810180730,418.39443033338478,3.1777694650785810,2.59459601347641969E-002,0,-16.541684830243852,0,5.0375614381020055,1,1.0448538031120043,0,0.11156268399972376,1,-2.3426642485828153,1.6270491713465136,0.69958984759705045,0.14502460768482572,15.599091028925454,1.3846960672225734,603.78240732293705,6059.0000000000000,-9999.
201810180800,419.20779194866310,3.2044134896239012,4.24053058376899286E-002,0,-24.976845881329734,0,5.7505247056485755,1,1.4765661782448194,0,0.12725624221225809,1,-19.283660648646570,1.0009749908735484,0.67620549540376318,0.18515687057595945,21.495493196480080,1.0048618006837375,349.49982409728716,3407.0000000000000,-9999.
201810180830,418.66425557558409,3.1133431491750847,6.35292397642784334E-002,0,-29.307852350115887,0,3.3088281031973366,0,1.0049437254914471,0,7.32153109132887836E-002,0,-2.5917068727238832,-3.4226194733464497,-0.45199952061632892,0.22659582556284191,33.572920418767026,0.64337566498759979,95.694726100006292,174.96047957832442,262.12268038196447
201810180900,418.76437369559676,3.1821725889296810,6.62363443486858744E-002,0,-35.252655132307808,0,2.9262172146656233,0,0.81021077086960269,0,6.47693772968196690E-002,0,7.9830749081467145,2.5826655507717549,8.31514413830497234E-002,0.23152348166310430,29.771572803638989,0.72552431618123403,96.459908015813795,176.35947616267572,264.21863219587806
201810180930,419.70404805926711,3.2943665595191143,0.11882354321892402,0,-34.788837220740504,0,1.8268715368745365,1,0.87267835009662464,0,4.04268130561335273E-002,1,-5.9974328076828085,4.2150255047271994,0.78121318404683049,0.30994868285603805,72.388688560113010,0.29838916037362567,101.75447147401448,186.03962677867298,278.72126177303585
201810181000,420.30380830391624,3.3515863397629646,0.14090015445641330,0,-42.995126307297859,0,9.8002145983691573,0,1.7917675871491512,0,0.21684223025147600,0,-3.1409461742265039,2.1506072623810293,0.49877063574098740,0.33746868273726932,75.591035201759453,0.28574817030018979,100.50437945085834,183.75405986394179,275.29706604994698
201810181030,419.68153695781166,3.2698564150165232,0.18814787316533399,0,-62.502516521495679,0,12.539945976665594,0,2.1061136390510935,0,0.27755363594543314,0,8.4243065792372800,-3.0659417852885111,-0.51667073621684401,0.39027007320022689,80.406561327415176,0.26863479352194769,102.38548070237648,187.19331289819004,280.44969380920838
201810181100,418.66147916865248,3.1927378385510656,0.29134712114269412,0,-81.338625614428111,0,22.291720899021762,0,3.0598439719450061,0,0.49370967022892559,0,16.256915477877794,-2.8834070216873684,-0.84469468353981381,0.48628867665551639,119.51492933310791,0.18073055910694824,104.60483972837403,191.25100902597057,286.52886201766768
201810181130,417.96748632506831,3.0335011199815618,0.26879822334260128,0,-73.236133267243545,0,19.998388104334467,0,2.1194464005206708,0,0.44315032820905281,0,13.355792558285723,-5.9370200761134244,-0.57337185774026844,0.46761205612733758,118.00097785053242,0.18304933055181916,93.964879573482790,171.79776842158671,257.38436274774176
201810181200,418.64540358182091,2.9715346856127165,0.21277922927912765,0,-52.112045966505150,0,11.705414796029158,0,1.5421728590407229,0,0.25938137071973233,0,-0.24056807645765951,-2.3096785441165362,0.55991705357245891,0.41610143380510201,116.81584226020291,0.18490642692013307,92.156001332431700,168.49056208482003,252.42956500336646
201810181230,418.58413114822025,2.8834894400617195,0.25210663203793776,0,-66.987964920462318,0,22.601376839645379,0,2.2362751894964381,0,0.50077434657420428,0,-2.6219011438262689,-3.2817401673787221,-5.06023387963193405E-002,0.45293957403191976,117.16701827455054,0.18435222060004974,95.913707817393970,175.36084799834578,262.72250523183470
201810181300,417.89985034228232,2.8208187224127510,0.26084170851967059,0,-50.642088561710118,0,21.739340162478641,0,2.1041063172896721,0,0.48180642929715839,0,6.9578799293997760,-2.3320356952862134,-0.56432737349553919,0.46103707309355862,163.40710077111535,0.13218519818337127,94.581332386488754,172.92484077130237,259.07292250708798
201810181330,416.95665046084036,2.9010822811851593,0.52469569433317420,0,-66.158415740485054,1,19.848404739673793,0,1.9390868385727220,1,0.44033380721101145,0,25.027025980391848,2.9719841549549262,-0.77479754921611865,0.65518479183530420,358.97341544081411,6.01715867273221808E-002,102.79505201744857,187.94213988821298,281.57157309440601
201810181400,416.83198362295360,3.0311978303090599,0.93190185347104670,0,2.9652409818449703,2,28.852151234742344,0,0.44885255850419536,2,0.64087232632435398,0,31.047334574329959,4.7882065130790030,-0.10190322689972994,0.87534568523841683,-19098.439306553460,-1.13098246685466863E-003,109.76039362847574,200.67700583493826,300.65072287900790
201810181430,417.51845118699657,3.1775783288000929,0.91467574849242683,0,43.968297541337122,0,28.455413055095228,0,0.12880029840478668,0,0.63259014572637007,0,20.966923613519992,5.3634797926002369,0.55916628350530562,0.86875665018226222,-1258.9420447839368,-1.71572631873670202E-002,100.20411166703906,183.20507458962228,274.47458607080154
201810181500,417.49021139668906,3.3578028018186252,0.83463341262471402,0,35.227701444733981,1,16.924000462987113,0,0.30545160575434349,1,0.37653444722860879,0,19.729796540467120,6.5758522155027705,-2.29245823825113999E-002,0.83131909202382270,-1376.4813416050242,-1.56921851006085293E-002,96.182993010789559,175.85318721598037,263.46011909580312
201810181530,416.76201601740684,3.6080909280812774,1.3326006042596754,0,95.869214140581562,0,35.752097541324495,0,1.1476156879857355,0,0.79657417077615356,0,35.475079691263787,9.0672416370991780,-0.58777018843106998,1.0534904837512007,-1029.2317453995715,-2.09865271806345052E-002,105.91626133088009,193.64870597181948,290.12104896013784
201810181600,416.08172742262923,3.7211647210622023,1.5129876100920900,0,147.03503218599403,0,47.521193045186706,0,0.37826902505842952,0,1.0597930394292803,0,23.171957519577308,4.0762713966449393,-0.54692534370447821,1.1247862172790837,-816.54084062612935,-2.64530552855592217E-002,105.41690756663705,192.73572803006857,288.75324163703186
201810181630,415.57879328133657,3.9801106332661376,1.3610390722730468,0,117.22540699829075,0,36.222946659118897,0,0.32077426833355727,0,0.80870424398460405,0,26.603531689326278,9.2820799416239854,-0.40248834531600708,1.0693139277331485,-879.74275046721118,-2.45526319921690016E-002,101.92267676195816,186.34715969135911,279.18200211607359
201810181700,415.36154986454198,4.2551810982467515,1.4287268937577255,0,129.92964027613982,0,37.861297212552266,1,6.58881973592224668E-002,0,0.84614300708782697,1,24.788006013155588,9.8076053995319441,-0.17310671980852371,1.0980057196069262,-859.09080516136339,-2.51428601845445944E-002,107.07061360529038,195.75923009121649,293.28299867884255
201810181730,415.29248242362632,4.7802629609393161,2.1259090714688491,0,188.69252517424351,0,57.045334781124815,0,-0.74809299597447954,0,1.2766360458347521,0,33.320933572446805,18.588488861699574,-5.47189055752927422E-002,1.3433746709208068,-1082.9870193388676,-1.99448373935138951E-002,113.60292439192627,207.70237758285660,311.17600994773534
201810181800,415.24251916430666,5.1229353040831960,1.5838462902790529,0,201.07358009544240,0,63.751206906208139,0,-0.87457266151309554,0,1.4283125029717383,0,26.989158914316828,12.058656362099036,-3.93917661733282354E-002,1.1624229915902222,-658.17519488852633,-3.28180098061251688E-002,113.64388165550623,207.77726052333003,311.28819823802286
201810181830,415.18144174112018,5.4065431250629272,1.2879527721642618,0,197.90083963796400,0,64.636603957769708,0,-0.93236521930323590,0,1.4495937168875470,0,23.826332976124572,9.9281702208180675,-4.79512005857351195E-002,1.0505069603922264,-493.41236258229492,-4.37767709891893828E-002,101.15829129419012,184.94961926803802,277.08823189673052
201810181900,414.83000032254881,5.6832849026061156,1.8080989851715790,0,209.26258925011138,0,69.051571356498584,0,-0.89969442382216869,0,1.5500935629260439,0,22.814555279222844,9.6403221335016251,-0.27482365433888334,1.2472159135342213,-780.70504828402613,-2.76672989978435056E-002,113.23647534298851,207.03239184846862,310.17224923023662
201810181930,414.51551405450704,6.0993244922252341,1.0527855970935656,0,135.13483578585092,0,59.381426865050379,0,7.24048201640545841E-002,0,1.3345595440813898,0,27.389803572556257,14.407620289296808,-0.24476347377714250,0.95403184102597949,-540.95071039531524,-3.99297007747992094E-002,99.288838253486603,181.53166287816521,271.96751039150030
201810182000,414.48703425830575,6.3374622217157253,1.4313942837338516,0,134.42699299722062,0,58.950067748433185,0,0.21340341925695139,0,1.3257574641564449,0,15.866050969640760,8.2177474859075215,-2.21024915497372958E-002,1.1140698566453995,-865.73220250274130,-2.49499786857375269E-002,106.56978063401242,194.84354768723685,291.91113957850041
201810182030,414.46383207958246,6.4531775109710203,1.4791017467411967,0,107.95085173039628,0,59.825956993258337,0,-0.21983444156573739,0,1.3460142652567357,0,9.7559889305432996,3.9844290589104046,-1.79748025928510163E-002,1.1335112399032656,-1135.3084919547518,-1.90256658459495402E-002,113.62206891241736,207.73737987214597,311.22844975534298
201810182100,414.38101734290825,6.5866837967831815,0.97783827201945028,0,86.106913307908542,0,60.047122439252739,0,-0.22016927121248475,0,1.3515334957594118,0,9.4308327332216759,4.5870040884194898,-6.40427027766568013E-002,0.92248216490967438,-767.02709723390205,-2.81606739551903511E-002,107.24794160096498,196.08344222317317,293.76872753169926
201810182130,414.51737732385396,6.6238628894407974,1.0087207025101248,0,54.799557952523244,0,48.952853637552749,0,-0.49600858551537952,0,1.1019906146656167,0,3.5215121904494682,1.2761650987408495,0.10536464070484236,0.93732461954261670,-1264.1177621820509,-1.70870156611954115E-002,112.93237572530262,206.47640075974022,309.33927326448008
201810182200,414.69643015029766,6.6234767449394809,0.74922640454841982,0,-6.0570100176353581,1,34.572996167248171,0,0.95654748711278237,1,0.77819456134818132,0,-2.6280344561011026,-1.32560594557912716E-002,0.13835566389356715,0.80780616103773406,7318.7422636887313,2.95132677470641641E-003,104.55074224725827,191.15210157698428,286.38068063578930
201810182230,415.21221001576242,6.6293857349170233,0.90174912342503655,0,-38.759764667398599,0,41.122704512855947,0,1.5022944182882934,0,0.92537590877405906,0,-6.1922746313245662,0.20307416346516635,0.39888005757998907,0.88585549991830737,1508.1380756051942,1.43222960479478852E-002,106.12187592070340,194.02463501942651,290.68425917669464
201810182300,415.86720630807599,6.6416317978687394,0.69055199188294203,0,-66.845063114652461,0,28.369416603392196,0,2.1073428352576231,0,0.63804622939514888,0,-12.708117698439789,0.42185469245625606,0.50746603487037334,0.77450481348166089,584.37141462202942,3.69627936266712295E-002,105.48089718261774,192.85272145652254,288.92851910885349
201810182330,416.56972709919057,6.6922533363981707,0.44246184764743818,0,-71.798394131345802,0,17.226196815169139,0,1.6784906095066709,0,0.38710711947197946,0,-19.552863734818398,1.7501202708265871,0.54579994828247635,0.61910587638723380,277.83599144793487,7.77437073124766093E-002,107.11913493834660,195.84794256312875,293.41590612729601
201810190000,417.38518398600269,6.6643199151741115,0.55361684626014107,0,-90.410636992521347,0,23.432353353830727,0,2.7086402989756282,0,0.52623787736003469,0,-15.010041254980205,-0.96843338812770363,0.63491096139304959,0.69176821786718434,307.76171116298997,7.01841691689863434E-002,107.18398172469159,195.96650317038913,293.59353152154335
